TimeCST,TemperatureF,Dew PointF,Humidity,Sea Level PressureIn,VisibilityMPH,Wind Direction,Wind SpeedMPH,Gust SpeedMPH,PrecipitationIn,Events,Conditions,WindDirDegrees,DateUTC
12:52 AM,42.1,28.0,58,29.92,10.0,WSW,12.7,-,N/A,,Clear,240,2013-02-14 06:52:00
1:52 AM,41.0,27.0,57,29.92,10.0,WSW,12.7,-,N/A,,Clear,250,2013-02-14 07:52:00
2:52 AM,39.9,25.0,55,29.91,10.0,WSW,11.5,-,N/A,,Clear,250,2013-02-14 08:52:00
3:52 AM,39.9,23.0,51,29.91,10.0,WSW,11.5,-,N/A,,Clear,250,2013-02-14 09:52:00
4:52 AM,37.9,23.0,55,29.92,10.0,WSW,9.2,-,N/A,,Clear,250,2013-02-14 10:52:00
5:52 AM,36.0,24.1,62,29.93,10.0,WSW,5.8,-,N/A,,Clear,240,2013-02-14 11:52:00
6:52 AM,36.0,25.0,64,29.95,10.0,WSW,5.8,-,N/A,,Clear,240,2013-02-14 12:52:00
7:52 AM,37.9,26.1,62,29.99,10.0,West,9.2,-,N/A,,Clear,260,2013-02-14 13:52:00
8:52 AM,41.0,28.0,60,30.02,10.0,West,11.5,-,N/A,,Clear,280,2013-02-14 14:52:00
9:52 AM,45.0,30.0,56,30.02,10.0,NW,11.5,-,N/A,,Clear,320,2013-02-14 15:52:00
10:52 AM,46.9,30.9,54,30.03,10.0,NNW,8.1,-,N/A,,Clear,330,2013-02-14 16:52:00
11:52 AM,50.0,30.9,48,30.03,10.0,NNW,6.9,-,N/A,,Clear,330,2013-02-14 17:52:00
12:52 PM,51.1,30.0,44,30.01,10.0,NNW,8.1,-,N/A,,Clear,340,2013-02-14 18:52:00
1:52 PM,54.0,28.9,38,30.00,10.0,NW,11.5,-,N/A,,Clear,320,2013-02-14 19:52:00
2:52 PM,52.0,28.9,41,30.01,10.0,WNW,8.1,-,N/A,,Clear,300,2013-02-14 20:52:00
3:52 PM,53.1,27.0,37,30.02,10.0,WNW,12.7,-,N/A,,Clear,290,2013-02-14 21:52:00
4:52 PM,50.0,28.0,43,30.04,10.0,WNW,9.2,-,N/A,,Clear,300,2013-02-14 22:52:00
5:52 PM,48.0,30.0,50,30.06,10.0,NW,8.1,-,N/A,,Clear,310,2013-02-14 23:52:00
6:52 PM,44.1,30.0,58,30.09,10.0,NNW,9.2,-,N/A,,Clear,340,2013-02-15 00:52:00
7:52 PM,39.9,30.0,68,30.10,10.0,NW,5.8,-,N/A,,Partly Cloudy,320,2013-02-15 01:52:00
8:52 PM,43.0,30.0,60,30.12,10.0,WNW,5.8,-,N/A,,Overcast,300,2013-02-15 02:52:00
9:52 PM,43.0,30.0,60,30.13,10.0,WNW,8.1,-,N/A,,Overcast,300,2013-02-15 03:52:00
10:52 PM,44.1,28.0,53,30.14,10.0,WNW,5.8,-,N/A,,Overcast,290,2013-02-15 04:52:00
11:52 PM,42.1,30.0,62,30.14,10.0,NW,6.9,-,N/A,,Overcast,310,2013-02-15 05:52:00